Lubbock, TX

7:44 AM CST on November 15, 2019 (GMT -0600)
Lubbock International

Weather History for KLBB - September, 2019

Change the Weather History Date:

Wednesday, September 18, 2019

  Actual Average Record
Temperature  
Mean Temperature 79 °F 71 °F  
Max Temperature 93 °F 84 °F 100 °F (2015)
Min Temperature 64 °F 58 °F 43 °F (1971)
Degree Days  
Heating Degree Days 0 1  
Month to date heating degree days 0 5  
Since 1 July heating degree days 0 5  
Cooling Degree Days 14 7  
Month to date cooling degree days 243 162  
Year to date cooling degree days 1961 1688  
Growing Degree Days 29 (Base 50)    
Moisture  
Dew Point 58 °F    
Average Humidity 50    
Maximum Humidity 81    
Minimum Humidity 26    
Precipitation  
Precipitation 0.00 in 0.08 in 2.68 in (1965)
Month to date precipitation 0.51 1.55  
Year to date precipitation 16.10 14.62  
Snow  
Snow 0.00 in 0.00 in 0.00 in (2002)
Month to date snowfall 0.0 0.0  
Since 1 July snowfall 0.0 0.0  
Since 1 September snowfall 0.0 0.0  
Snow Depth 0.00 in    
Sea Level Pressure  
Sea Level Pressure 29.87 in    
Wind  
Wind Speed 8 mph ()    
Max Wind Speed 26 mph    
Max Gust Speed 29 mph    
Visibility 10.0 miles    
Events Thunderstorm    
T = Trace of Precipitation, MM = Missing Value Source: Averaged Metar Reports

Daily Weather History Graph

Daily Weather History Graph

Search for Another Location

Airport or City:

Astronomy

Sep. 18, 2019 Rise Set
Actual Time 7:32 AM CDT 7:49 PM CDT
Civil Twilight 7:07 AM CDT 8:14 PM CDT
Nautical Twilight 6:38 AM CDT 8:43 PM CDT
Astronomical Twilight 6:08 AM CDT 9:13 PM CDT
Moon 10:36 PM CDT (9/18) 11:27 AM CDT (9/18)
Length of Visible Light 13h 07m
Length of Day
12h 17m
Waning Gibbous, 82% of the Moon is Illuminated
Sep 18
Waning Gibbous
Sep 21
Last Quarter
Sep 28
New
Oct 5
First Quarter
Oct 13
Full

Hourly Weather History & Observations

Time (CDT) Temp. Heat Index Dew Point Humidity Pressure Visibility Wind Dir Wind Speed Gust Speed Precip Events Conditions
12:53 AM 73.0 °F - 57.0 °F 57% 29.85 in 10.0 mi SE 9.2 mph - N/A   Partly Cloudy
1:53 AM 71.1 °F - 57.0 °F 61% 29.85 in 10.0 mi SE 9.2 mph - N/A   Partly Cloudy
2:53 AM 71.1 °F - 57.0 °F 61% 29.86 in 10.0 mi SSE 10.4 mph - N/A   Clear
3:53 AM 70.0 °F - 57.9 °F 65% 29.85 in 10.0 mi SSE 9.2 mph - N/A   Clear
4:53 AM 68.0 °F - 59.0 °F 73% 29.85 in 10.0 mi SSE 6.9 mph - N/A   Clear
5:53 AM 66.0 °F - 59.0 °F 78% 29.86 in 10.0 mi SE 6.9 mph - N/A   Clear
6:53 AM 66.0 °F - 59.0 °F 78% 29.87 in 10.0 mi SSE 5.8 mph - N/A   Partly Cloudy
7:53 AM 66.0 °F - 60.1 °F 81% 29.89 in 10.0 mi SE 5.8 mph - N/A   Partly Cloudy
8:53 AM 71.1 °F - 61.0 °F 70% 29.90 in 10.0 mi South 4.6 mph - N/A   Partly Cloudy
9:53 AM 77.0 °F - 61.0 °F 58% 29.90 in 10.0 mi South 12.7 mph - N/A   Partly Cloudy
10:53 AM 81.0 °F 81.7 °F 61.0 °F 50% 29.90 in 10.0 mi South 10.4 mph - N/A   Partly Cloudy
11:53 AM 86.0 °F 85.7 °F 60.1 °F 41% 29.90 in 10.0 mi South 8.1 mph - N/A   Partly Cloudy
12:53 PM 89.1 °F 88.0 °F 57.9 °F 35% 29.89 in 10.0 mi SW 10.4 mph - N/A   Partly Cloudy
1:53 PM 91.0 °F 89.7 °F 57.0 °F 32% 29.86 in 10.0 mi SSW 10.4 mph 16.1 mph N/A   Partly Cloudy
2:53 PM 91.9 °F 90.3 °F 55.9 °F 30% 29.83 in 10.0 mi Variable 6.9 mph - N/A   Partly Cloudy
3:53 PM 93.0 °F 91.1 °F 55.0 °F 28% 29.81 in 10.0 mi South 6.9 mph - N/A   Scattered Clouds
4:53 PM 93.9 °F 91.7 °F 54.0 °F 26% 29.80 in 10.0 mi SSE 11.5 mph - N/A   Scattered Clouds
5:53 PM 91.0 °F 88.7 °F 54.0 °F 28% 29.81 in 10.0 mi South 8.1 mph - N/A   Mostly Cloudy
6:04 PM 91.0 °F 88.7 °F 54.0 °F 28% 29.97 in 10.0 mi SSW 8.1 mph - N/A Thunderstorm Thunderstorm
6:17 PM 82.0 °F 82.0 °F 57.9 °F 44% 29.98 in 10.0 mi NNW 16.1 mph 21.9 mph N/A Thunderstorm Thunderstorm
6:32 PM 80.1 °F 80.6 °F 57.9 °F 47% 29.99 in 10.0 mi North 18.4 mph 27.6 mph N/A   Mostly Cloudy
6:53 PM 80.1 °F 80.6 °F 57.9 °F 47% 29.84 in 10.0 mi North 12.7 mph - N/A   Mostly Cloudy
7:53 PM 84.9 °F 83.7 °F 55.9 °F 37% 29.82 in 10.0 mi East 8.1 mph - N/A   Mostly Cloudy
8:53 PM 82.0 °F 81.7 °F 57.0 °F 42% 29.83 in 10.0 mi SE 8.1 mph - N/A   Mostly Cloudy
9:53 PM 75.9 °F - 57.9 °F 54% 29.86 in 10.0 mi ESE 9.2 mph - N/A   Scattered Clouds
10:53 PM 80.1 °F 80.7 °F 59.0 °F 48% 29.85 in 10.0 mi SE 15.0 mph - N/A   Mostly Cloudy
11:53 PM 78.1 °F - 59.0 °F 52% 29.85 in 10.0 mi ESE 13.8 mph - N/A   Mostly Cloudy